Terug naar catalogus

STARLINK-34957

ActiefCommunicatieSSO
NORAD 65388·PAYLOAD·🇺🇸 United States

Gelanceerd Aug 30, 2025 vanaf Vandenberg Space Force Base

Loading…

Volgende Passages (komende 24 uur)

TLE

VersSource: CelesTrak SupGP

Epoch: Sep 15, 2026, 03:58 UTC

1 65388C 25191K   26258.16576389 -.00003783  00000+0 -11740-3 0  2582
2 65388  97.2843 124.3033 0001735  94.3492 247.4507 15.33446090    13

Volg STARLINK-34957 in realtime met AllMySat

Download on the App Store